| time (UTC) | temp F | wind direction | speed MPH | gust MPH | rain 1hr in | rain 24hr in | rain mn in | humidity % | barometer mb |
| 20260506140202 | 54 | 199 | 9.0 | 20.0 | 0.00 | 0.00 | 0.00 | 87 | 1008.9 |
| 20260506135203 | 54 | 199 | 6.0 | 12.0 | 0.00 | 0.00 | 0.00 | 88 | 1009.1 |
| 20260506134202 | 53 | 228 | 4.0 | 9.0 | 0.00 | 0.00 | 0.00 | 88 | 1009.1 |
| 20260506133204 | 52 | 208 | 5.0 | 16.0 | 0.00 | 0.00 | 0.00 | 88 | 1008.9 |
| 20260506132202 | 53 | 224 | 4.0 | 14.0 | 0.00 | 0.00 | 0.00 | 87 | 1009.0 |
| 20260506131203 | 54 | 203 | 3.0 | 12.0 | 0.00 | 0.00 | 0.00 | 89 | 1008.6 |
| 20260506130224 | 53 | 225 | 4.0 | 15.0 | 0.00 | 0.00 | 0.00 | 89 | 1008.6 |
| 20260506125202 | 54 | 211 | 7.0 | 17.0 | 0.00 | 0.00 | 0.00 | 87 | 1008.8 |
| 20260506124203 | 52 | 207 | 5.0 | 10.0 | 0.00 | 0.00 | 0.00 | 90 | 1008.9 |
| 20260506123202 | 52 | 223 | 4.0 | 10.0 | 0.00 | 0.00 | 0.00 | 89 | 1009.0 |
| 20260506122224 | 52 | 213 | 3.0 | 16.0 | 0.00 | 0.00 | 0.00 | 90 | 1008.8 |
| 20260506121202 | 52 | 194 | 4.0 | 13.0 | 0.00 | 0.00 | 0.00 | 90 | 1008.9 |
| 20260506120203 | 52 | 204 | 4.0 | 10.0 | 0.00 | 0.00 | 0.00 | 90 | 1009.4 |
| 20260506115203 | 51 | 215 | 4.0 | 10.0 | 0.00 | 0.00 | 0.00 | 90 | 1009.0 |
| 20260506114203 | 51 | 247 | 8.0 | 13.0 | 0.00 | 0.00 | 0.00 | 90 | 1009.5 |
| 20260506113204 | 51 | 238 | 8.0 | 14.0 | 0.00 | 0.00 | 0.00 | 90 | 1009.3 |
| 20260506112202 | 51 | 244 | 5.0 | 14.0 | 0.00 | 0.00 | 0.00 | 90 | 1009.3 |
| 20260506111203 | 51 | 220 | 4.0 | 12.0 | 0.00 | 0.00 | 0.00 | 90 | 1009.1 |
| 20260506110203 | 51 | 229 | 4.0 | 11.0 | 0.00 | 0.00 | 0.00 | 90 | 1009.1 |
| 20260506105203 | 51 | 203 | 4.0 | 12.0 | 0.00 | 0.00 | 0.00 | 90 | 1008.9 |
| 20260506104203 | 51 | 234 | 5.0 | 10.0 | 0.00 | 0.00 | 0.00 | 91 | 1009.2 |
| 20260506103203 | 50 | 223 | 5.0 | 11.0 | 0.00 | 0.00 | 0.00 | 91 | 1009.0 |
| 20260506102203 | 50 | 220 | 4.0 | 13.0 | 0.00 | 0.00 | 0.00 | 92 | 1009.0 |
| 20260506101202 | 49 | 251 | 4.0 | 10.0 | 0.00 | 0.00 | 0.00 | 92 | 1008.9 |
| 20260506100224 | 49 | 240 | 3.0 | 10.0 | 0.00 | 0.00 | 0.00 | 92 | 1008.8 |
| 20260506095203 | 49 | 239 | 4.0 | 10.0 | 0.00 | 0.00 | 0.00 | 92 | 1008.8 |
| 20260506094202 | 49 | 225 | 4.0 | 11.0 | 0.00 | 0.00 | 0.00 | 92 | 1008.6 |
| 20260506093203 | 49 | 245 | 4.0 | 10.0 | 0.00 | 0.00 | 0.00 | 91 | 1008.8 |
| 20260506092202 | 49 | 242 | 4.0 | 11.0 | 0.00 | 0.00 | 0.00 | 91 | 1008.7 |
| 20260506091203 | 49 | 250 | 4.0 | 9.0 | 0.00 | 0.00 | 0.00 | 91 | 1008.6 |
| 20260506090202 | 49 | 236 | 5.0 | 10.0 | 0.00 | 0.00 | 0.00 | 91 | 1008.5 |
| 20260506085203 | 49 | 211 | 5.0 | 9.0 | 0.00 | 0.00 | 0.00 | 90 | 1008.5 |
| 20260506083203 | 49 | 251 | 4.0 | 10.0 | 0.00 | 0.00 | 0.00 | 90 | 1008.5 |
| 20260506082203 | 50 | 217 | 5.0 | 13.0 | 0.00 | 0.00 | 0.00 | 89 | 1008.5 |
| 20260506081203 | 51 | 216 | 5.0 | 16.0 | 0.00 | 0.00 | 0.00 | 88 | 1008.3 |
| 20260506080202 | 52 | 212 | 5.0 | 17.0 | 0.00 | 0.00 | 0.00 | 88 | 1008.3 |
| 20260506073203 | 52 | 209 | 8.0 | 20.0 | 0.00 | 0.00 | 0.00 | 88 | 1007.7 |
| 20260506072203 | 51 | 210 | 6.0 | 19.0 | 0.00 | 0.00 | 0.00 | 89 | 1007.8 |
| 20260506071203 | 50 | 242 | 3.0 | 15.0 | 0.00 | 0.00 | 0.00 | 89 | 1007.8 |
| 20260506070203 | 50 | 238 | 6.0 | 13.0 | 0.00 | 0.00 | 0.00 | 88 | 1007.9 |
| 20260506062202 | 50 | 240 | 5.0 | 13.0 | 0.00 | 0.00 | 0.00 | 87 | 1007.8 |
| 20260506061224 | 50 | 235 | 4.0 | 12.0 | 0.00 | 0.00 | 0.00 | 88 | 1007.7 |
| 20260506051224 | 50 | 237 | 6.0 | 15.0 | 0.00 | 0.00 | 0.00 | 87 | 1007.9 |
| 20260506050203 | 50 | 233 | 6.0 | 16.0 | 0.00 | 0.00 | 0.00 | 86 | 1008.0 |
| 20260506044203 | 50 | 207 | 5.0 | 13.0 | 0.00 | 0.00 | 0.00 | 88 | 1007.6 |
| 20260506043224 | 50 | 233 | 6.0 | 15.0 | 0.00 | 0.00 | 0.00 | 88 | 1007.8 |
| 20260506042225 | 50 | 235 | 6.0 | 12.0 | 0.00 | 0.00 | 0.00 | 89 | 1007.8 |
| 20260506041203 | 50 | 234 | 6.0 | 15.0 | 0.00 | 0.00 | 0.00 | 89 | 1007.8 |
| 20260506040224 | 50 | 242 | 6.0 | 15.0 | 0.00 | 0.00 | 0.00 | 89 | 1007.7 |
| 20260506035202 | 50 | 246 | 8.0 | 16.0 | 0.00 | 0.00 | 0.00 | 89 | 1007.8 |
| 20260506034203 | 50 | 238 | 6.0 | 12.0 | 0.00 | 0.00 | 0.00 | 87 | 1007.8 |
| 20260506033202 | 50 | 220 | 4.0 | 13.0 | 0.00 | 0.00 | 0.00 | 85 | 1007.7 |
| 20260506032203 | 50 | 236 | 6.0 | 13.0 | 0.00 | 0.00 | 0.00 | 85 | 1007.7 |
| 20260506031202 | 51 | 234 | 5.0 | 12.0 | 0.00 | 0.00 | 0.00 | 84 | 1007.8 |
| 20260506030203 | 51 | 239 | 5.0 | 10.0 | 0.00 | 0.00 | 0.00 | 84 | 1007.7 |
| 20260506025202 | 51 | 230 | 4.0 | 10.0 | 0.00 | 0.00 | 0.00 | 84 | 1007.6 |
| 20260506024224 | 51 | 214 | 5.0 | 11.0 | 0.00 | 0.00 | 0.00 | 84 | 1007.8 |
| 20260506023203 | 52 | 237 | 4.0 | 9.0 | 0.00 | 0.00 | 0.00 | 83 | 1007.9 |
| 20260506022202 | 53 | 236 | 6.0 | 13.0 | 0.00 | 0.00 | 0.00 | 82 | 1008.0 |
| 20260506021224 | 53 | 219 | 5.0 | 12.0 | 0.00 | 0.00 | 0.00 | 83 | 1007.9 |
| 20260506020224 | 52 | 227 | 4.0 | 12.0 | 0.00 | 0.00 | 0.00 | 83 | 1007.9 |
| 20260506015203 | 52 | 217 | 4.0 | 8.0 | 0.00 | 0.00 | 0.00 | 83 | 1008.1 |
| 20260506014245 | 52 | 254 | 3.0 | 11.0 | 0.00 | 0.00 | 0.00 | 82 | 1008.2 |
| 20260506013203 | 52 | 255 | 5.0 | 10.0 | 0.00 | 0.00 | 0.00 | 82 | 1008.2 |
| 20260506012203 | 53 | 197 | 3.0 | 9.0 | 0.00 | 0.00 | 0.00 | 81 | 1007.9 |
| 20260506011203 | 54 | 227 | 4.0 | 13.0 | 0.00 | 0.00 | 0.00 | 79 | 1007.9 |
| 20260506010202 | 54 | 240 | 5.0 | 20.0 | 0.00 | 0.00 | 0.00 | 79 | 1007.5 |
| 20260506005203 | 54 | 218 | 5.0 | 15.0 | 0.00 | 0.00 | 0.00 | 79 | 1007.3 |
| 20260506004224 | 54 | 216 | 10.0 | 18.0 | 0.00 | 0.00 | 0.00 | 79 | 1007.1 |
| 20260506003202 | 54 | 201 | 9.0 | 18.0 | 0.00 | 0.00 | 0.00 | 79 | 1006.7 |
| 20260506002203 | 54 | 220 | 5.0 | 15.0 | 0.00 | 0.00 | 0.00 | 79 | 1007.0 |
| 20260506001202 | 55 | 217 | 6.0 | 13.0 | 0.00 | 0.00 | 0.00 | 79 | 1007.0 |
| 20260506000204 | 54 | 212 | 5.0 | 12.0 | 0.00 | 0.00 | 0.00 | 79 | 1006.9 |
| 20260505235202 | 54 | 221 | 6.0 | 25.0 | 0.00 | 0.00 | 0.00 | 79 | 1006.8 |
| 20260505234203 | 53 | 211 | 11.0 | 20.0 | 0.00 | 0.00 | 0.00 | 82 | 1006.2 |
| 20260505233204 | 53 | 248 | 4.0 | 20.0 | 0.00 | 0.00 | 0.00 | 81 | 1005.8 |
| 20260505232202 | 54 | 217 | 6.0 | 20.0 | 0.00 | 0.00 | 0.00 | 80 | 1005.0 |
| 20260505231203 | 54 | 233 | 8.0 | 22.0 | 0.00 | 0.00 | 0.00 | 79 | 1005.0 |
| 20260505230202 | 54 | 201 | 9.0 | 31.0 | 0.00 | 0.00 | 0.00 | 79 | 1004.5 |
| 20260505225203 | 55 | 200 | 13.0 | 24.0 | 0.00 | 0.00 | 0.00 | 78 | 1004.5 |
| 20260505224225 | 55 | 200 | 12.0 | 25.0 | 0.00 | 0.00 | 0.00 | 78 | 1004.2 |
| 20260505223202 | 56 | 192 | 13.0 | 30.0 | 0.00 | 0.00 | 0.00 | 77 | 1004.0 |
| 20260505222203 | 56 | 197 | 16.0 | 34.0 | 0.00 | 0.00 | 0.00 | 76 | 1003.7 |
| 20260505221203 | 56 | 193 | 16.0 | 31.0 | 0.00 | 0.00 | 0.00 | 77 | 1003.9 |
| 20260505220203 | 56 | 197 | 12.0 | 28.0 | 0.00 | 0.00 | 0.00 | 78 | 1004.0 |
| 20260505215204 | 56 | 196 | 12.0 | 34.0 | 0.00 | 0.00 | 0.00 | 78 | 1004.0 |
| 20260505214203 | 57 | 188 | 11.0 | 27.0 | 0.00 | 0.00 | 0.00 | 77 | 1003.9 |
| 20260505213203 | 58 | 195 | 14.0 | 26.0 | 0.00 | 0.00 | 0.00 | 76 | 1004.2 |
| 20260505212203 | 58 | 199 | 14.0 | 32.0 | 0.00 | 0.00 | 0.00 | 75 | 1004.0 |
| 20260505211203 | 59 | 190 | 13.0 | 28.0 | 0.00 | 0.00 | 0.00 | 74 | 1004.0 |
| 20260505210202 | 58 | 181 | 13.0 | 31.0 | 0.00 | 0.00 | 0.00 | 75 | 1004.1 |
| 20260505205203 | 58 | 190 | 14.0 | 34.0 | 0.00 | 0.00 | 0.00 | 74 | 1003.9 |
| 20260505204203 | 59 | 197 | 14.0 | 26.0 | 0.00 | 0.00 | 0.00 | 74 | 1004.0 |
| 20260505203224 | 59 | 191 | 13.0 | 26.0 | 0.00 | 0.00 | 0.00 | 74 | 1004.0 |
| 20260505202203 | 59 | 193 | 15.0 | 29.0 | 0.00 | 0.00 | 0.00 | 74 | 1004.0 |
| 20260505200203 | 59 | 187 | 12.0 | 27.0 | 0.00 | 0.00 | 0.00 | 74 | 1004.4 |
| 20260505195203 | 59 | 211 | 9.0 | 19.0 | 0.00 | 0.00 | 0.00 | 74 | 1004.7 |
| 20260505194203 | 59 | 199 | 8.0 | 19.0 | 0.00 | 0.00 | 0.00 | 73 | 1004.9 |
| 20260505193224 | 59 | 208 | 10.0 | 16.0 | 0.00 | 0.00 | 0.00 | 73 | 1005.1 |
| 20260505192203 | 60 | 210 | 5.0 | 12.0 | 0.00 | 0.00 | 0.00 | 73 | 1005.3 |
| 20260505191204 | 60 | 230 | 5.0 | 17.0 | 0.00 | 0.00 | 0.00 | 73 | 1005.6 |
| 20260505190204 | 60 | 212 | 6.0 | 14.0 | 0.00 | 0.00 | 0.00 | 73 | 1005.5 |
| 20260505185203 | 59 | 213 | 7.0 | 18.0 | 0.00 | 0.00 | 0.00 | 75 | 1005.6 |
| 20260505184203 | 61 | 217 | 6.0 | 19.0 | 0.00 | 0.00 | 0.00 | 72 | 1005.5 |
| 20260505183202 | 60 | 199 | 10.0 | 27.0 | 0.00 | 0.00 | 0.00 | 73 | 1005.6 |
| 20260505182224 | 61 | 198 | 10.0 | 18.0 | 0.00 | 0.00 | 0.00 | 72 | 1005.6 |
| 20260505181202 | 61 | 196 | 12.0 | 22.0 | 0.00 | 0.00 | 0.00 | 71 | 1005.8 |
| 20260505180203 | 60 | 186 | 9.0 | 21.0 | 0.00 | 0.00 | 0.00 | 74 | 1005.9 |
| 20260505175203 | 60 | 188 | 11.0 | 20.0 | 0.00 | 0.00 | 0.00 | 73 | 1006.1 |
| 20260505174202 | 60 | 214 | 6.0 | 17.0 | 0.00 | 0.00 | 0.00 | 74 | 1006.4 |
| 20260505173203 | 61 | 195 | 9.0 | 15.0 | 0.00 | 0.00 | 0.00 | 72 | 1006.5 |
| 20260505172202 | 61 | 204 | 7.0 | 16.0 | 0.00 | 0.00 | 0.00 | 72 | 1006.6 |
| 20260505171203 | 60 | 203 | 11.0 | 21.0 | 0.00 | 0.00 | 0.00 | 73 | 1006.7 |
| 20260505170203 | 60 | 201 | 8.0 | 16.0 | 0.00 | 0.00 | 0.00 | 73 | 1006.8 |
| 20260505165203 | 59 | 201 | 9.0 | 19.0 | 0.00 | 0.00 | 0.00 | 73 | 1006.9 |
| 20260505164203 | 58 | 202 | 10.0 | 23.0 | 0.00 | 0.00 | 0.00 | 74 | 1007.1 |
| 20260505163203 | 59 | 209 | 7.0 | 17.0 | 0.00 | 0.00 | 0.00 | 76 | 1007.2 |
| 20260505162202 | 59 | 211 | 9.0 | 16.0 | 0.00 | 0.00 | 0.00 | 74 | 1007.4 |
| 20260505161203 | 59 | 209 | 7.0 | 16.0 | 0.00 | 0.00 | 0.00 | 76 | 1007.6 |
| 20260505160203 | 58 | 219 | 7.0 | 19.0 | 0.00 | 0.00 | 0.00 | 76 | 1007.8 |
| 20260505153203 | 55 | 232 | 6.0 | 14.0 | 0.00 | 0.00 | 0.00 | 82 | 1008.1 |
| 20260505152203 | 53 | 237 | 9.0 | 17.0 | 0.00 | 0.00 | 0.00 | 83 | 1008.2 |
| 20260505151224 | 53 | 237 | 7.0 | 17.0 | 0.00 | 0.00 | 0.00 | 82 | 1007.9 |
| 20260505150202 | 56 | 221 | 7.0 | 14.0 | 0.00 | 0.00 | 0.00 | 76 | 1007.9 |